GW4935 Weather Reports


time (UTC)temp
C
wind
direction
speed
KPH
gust
KPH
rain 1hr
cm
rain 24hr
cm
rain mn
cm
humidity
%
barometer
mb
20260906122042 23 288 3.2 6.4 0.00 0.00 0.00 85 1013.1
20260906121609 23 295 1.6 4.8 0.00 0.00 0.00 85 1012.9
20260906121042 23 278 3.2 4.8 0.00 0.00 0.00 86 1012.7
20260906120545 23 314 0.0 4.8 0.00 0.00 0.00 86 1012.5
20260906120113 23 0 0.0 4.8 0.00 0.00 0.00 86 1012.5
20260906115542 23 0 1.6 3.2 0.00 0.00 0.00 86 1012.5
20260906115042 23 0 0.0 0.0 0.00 0.00 0.00 86 1012.5
20260906114607 22 0 0.0 0.0 0.00 0.00 0.00 87 1012.4
20260906114043 22 0 0.0 0.0 0.00 0.00 0.00 88 1012.3
20260906113542 22 0 0.0 0.0 0.00 0.00 0.00 90 1012.4
20260906113109 22 0 0.0 0.0 0.00 0.00 0.00 90 1012.3
20260906112542 22 0 0.0 0.0 0.00 0.00 0.00 90 1012.4
20260906112043 22 0 0.0 0.0 0.00 0.00 0.00 89 1012.3
20260906111602 22 0 0.0 0.0 0.00 0.00 0.00 89 1012.1
20260906111043 22 0 0.0 0.0 0.00 0.00 0.00 88 1012.1
20260906110543 22 0 0.0 0.0 0.00 0.00 0.00 88 1012.0
20260906110059 22 0 0.0 0.0 0.00 0.00 0.00 88 1011.9
20260906105543 22 0 0.0 0.0 0.00 0.00 0.00 89 1012.0
20260906105042 22 0 0.0 0.0 0.00 0.00 0.00 89 1012.0
20260906104607 22 0 0.0 0.0 0.00 0.00 0.00 89 1011.9
20260906104044 22 0 0.0 0.0 0.00 0.00 0.00 89 1011.8
20260906103542 22 0 0.0 0.0 0.00 0.00 0.00 88 1011.7
20260906103102 22 0 0.0 0.0 0.00 0.00 0.00 87 1011.8
20260906102548 22 0 0.0 0.0 0.00 0.00 0.00 87 1011.8
20260906102041 23 0 0.0 0.0 0.00 0.00 0.00 87 1011.6
20260906101559 23 0 0.0 0.0 0.00 0.00 0.00 87 1011.6
20260906101041 23 0 0.0 0.0 0.00 0.00 0.00 86 1011.5
20260906100547 23 0 0.0 0.0 0.00 0.00 0.00 86 1011.3
20260906100111 23 0 0.0 0.0 0.00 0.00 0.00 86 1011.4
20260906095543 23 0 0.0 3.2 0.00 0.00 0.00 86 1011.3
20260906095042 23 0 0.0 3.2 0.00 0.00 0.00 87 1011.5
20260906094602 23 240 1.6 3.2 0.00 0.00 0.00 88 1011.4
20260906094045 23 0 0.0 0.0 0.00 0.00 0.00 88 1011.5
20260906093542 23 0 0.0 4.8 0.00 0.00 0.00 88 1011.5
20260906093103 23 0 0.0 8.0 0.00 0.00 0.00 88 1011.5
20260906092543 23 193 0.0 8.0 0.00 0.00 0.00 88 1011.4
20260906092041 22 187 3.2 8.0 0.00 0.00 0.00 88 1011.3
20260906091607 22 193 1.6 3.2 0.00 0.00 0.00 88 1011.3
20260906091043 23 195 1.6 4.8 0.00 0.00 0.00 87 1011.3
20260906090543 23 186 1.6 4.8 0.00 0.00 0.00 87 1011.2
20260906090106 23 163 1.6 4.8 0.00 0.00 0.00 87 1011.1
20260906085554 23 178 1.6 9.7 0.00 0.00 0.00 86 1011.2
20260906085044 23 198 1.6 9.7 0.00 0.00 0.00 86 1011.1
20260906084602 23 186 4.8 9.7 0.00 0.00 0.00 86 1011.1
20260906084048 23 184 4.8 11.3 0.00 0.00 0.00 85 1011.2
20260906083545 23 169 6.4 11.3 0.00 0.00 0.00 85 1011.1
20260906083102 23 164 4.8 9.7 0.00 0.00 0.00 85 1011.1
20260906082542 23 182 4.8 9.7 0.00 0.00 0.00 85 1011.1
20260906082044 23 184 4.8 9.7 0.00 0.00 0.00 85 1011.1
20260906081559 23 176 3.2 9.7 0.00 0.00 0.00 85 1011.1
20260906081043 23 213 4.8 9.7 0.00 0.00 0.00 84 1011.0
20260906080542 23 194 3.2 8.0 0.00 0.00 0.00 84 1011.0
20260906080057 24 190 3.2 9.7 0.00 0.00 0.00 84 1011.1
20260906075543 24 174 3.2 11.3 0.00 0.00 0.00 83 1011.2
20260906075045 24 167 4.8 11.3 0.00 0.00 0.00 83 1011.2
20260906074604 24 165 4.8 9.7 0.00 0.00 0.00 83 1011.1
20260906074044 24 179 3.2 8.0 0.00 0.00 0.00 83 1011.3
20260906073544 24 225 4.8 9.7 0.00 0.00 0.00 82 1011.3
20260906073101 24 196 6.4 9.7 0.00 0.00 0.00 82 1011.3
20260906072544 24 186 4.8 9.7 0.00 0.00 0.00 82 1011.3
20260906072043 25 171 4.8 14.5 0.00 0.00 0.00 82 1011.4
20260906071606 25 157 3.2 14.5 0.00 0.00 0.00 81 1011.5
20260906071043 25 158 8.0 14.5 0.00 0.00 0.00 81 1011.4
20260906070542 25 159 4.8 12.9 0.00 0.00 0.00 81 1011.5
20260906070058 25 162 6.4 12.9 0.00 0.00 0.00 80 1011.5
20260906065544 25 149 6.4 14.5 0.00 0.00 0.00 79 1011.5
20260906065043 25 159 8.0 14.5 0.00 0.00 0.00 78 1011.6
20260906064603 25 134 6.4 17.7 0.00 0.00 0.00 78 1011.6
20260906064044 25 154 9.7 17.7 0.00 0.00 0.00 78 1011.6
20260906063544 25 157 8.0 16.1 0.00 0.00 0.00 78 1011.7
20260906063101 25 113 6.4 14.5 0.00 0.00 0.00 79 1011.8
20260906062542 25 136 6.4 14.5 0.00 0.00 0.00 79 1011.8
20260906062042 25 127 6.4 14.5 0.00 0.00 0.00 80 1011.9
20260906061623 25 128 6.4 14.5 0.00 0.00 0.00 80 1011.9
20260906061046 26 132 6.4 14.5 0.00 0.00 0.00 80 1011.9
20260906060542 26 117 6.4 12.9 0.00 0.00 0.00 80 1012.0
20260906060128 26 120 6.4 12.9 0.00 0.00 0.00 80 1012.0
20260906055543 26 116 6.4 12.9 0.00 0.00 0.00 80 1011.9
20260906055044 26 96 4.8 11.3 0.00 0.00 0.00 80 1011.9
20260906054605 26 106 6.4 11.3 0.00 0.00 0.00 80 1011.8
20260906054043 26 103 4.8 11.3 0.00 0.00 0.00 80 1011.9
20260906053543 26 108 1.6 6.4 0.00 0.00 0.00 80 1011.8
20260906053102 26 121 3.2 6.4 0.00 0.00 0.00 80 1011.8
20260906052541 26 74 1.6 6.4 0.00 0.00 0.00 81 1011.9
20260906052044 25 103 3.2 6.4 0.00 0.00 0.00 82 1011.9
20260906051610 25 60 0.0 3.2 0.00 0.00 0.00 84 1012.0
20260906051043 25 0 0.0 1.6 0.00 0.00 0.00 84 1011.9
20260906050547 25 0 0.0 1.6 0.00 0.00 0.00 83 1011.9
20260906050107 26 0 0.0 0.0 0.00 0.00 0.00 80 1011.9
20260906045542 26 0 0.0 3.2 0.00 0.00 0.00 79 1011.8
20260906045044 26 0 0.0 6.4 0.00 0.00 0.00 79 1011.9
20260906044601 26 76 1.6 8.0 0.00 0.00 0.00 80 1012.0
20260906044044 26 76 1.6 8.0 0.00 0.00 0.00 80 1011.9
20260906043543 26 5 3.2 9.7 0.00 0.00 0.00 80 1012.2
20260906043108 26 86 3.2 12.9 0.00 0.00 0.00 80 1012.0
20260906042544 26 27 0.0 12.9 0.00 0.00 0.00 80 1012.1
20260906042043 26 31 0.0 6.4 0.00 0.00 0.00 82 1011.9
20260906041605 26 0 0.0 0.0 0.00 0.00 0.00 82 1011.8
20260906041044 26 0 0.0 0.0 0.00 0.00 0.00 81 1011.9
20260906040543 26 0 0.0 0.0 0.00 0.00 0.00 81 1011.9
20260906040109 26 0 0.0 0.0 0.00 0.00 0.00 81 1012.0
20260906035545 26 0 0.0 0.0 0.00 0.00 0.00 82 1012.0
20260906035044 26 0 0.0 1.6 0.00 0.00 0.00 83 1011.9
20260906034607 25 0 0.0 3.2 0.00 0.00 0.00 83 1012.1
20260906034045 26 196 1.6 3.2 0.00 0.00 0.00 81 1011.9
20260906033542 27 204 1.6 3.2 0.00 0.00 0.00 78 1012.0
20260906033059 27 0 0.0 1.6 0.00 0.00 0.00 76 1012.1
20260906032543 28 0 0.0 4.8 0.00 0.00 0.00 76 1012.1
20260906032043 27 34 1.6 8.0 0.00 0.00 0.00 76 1012.1
20260906031604 27 350 0.0 8.0 0.00 0.00 0.00 78 1012.0
20260906031044 27 0 3.2 8.0 0.00 0.00 0.00 80 1011.9
20260906030542 26 61 0.0 3.2 0.00 0.00 0.00 81 1011.7
20260906030109 26 0 0.0 0.0 0.00 0.00 0.00 83 1011.4
20260906025544 26 0 0.0 0.0 0.00 0.00 0.00 84 1011.1
20260906025043 26 0 0.0 0.0 0.00 0.00 0.00 84 1011.1
20260906024604 26 0 0.0 0.0 0.00 0.00 0.00 83 1011.1
20260906024046 26 0 0.0 0.0 0.00 0.00 0.00 83 1011.1
20260906023544 26 0 0.0 0.0 0.00 0.00 0.00 81 1011.1
20260906023110 27 0 0.0 0.0 0.00 0.00 0.00 76 1011.0
20260906022542 28 0 0.0 0.0 0.00 0.00 0.00 75 1011.0
20260906022044 27 0 0.0 0.0 0.00 0.00 0.00 76 1011.0
20260906021611 27 0 0.0 0.0 0.00 0.00 0.00 77 1010.8
20260906021044 27 0 0.0 0.0 0.00 0.00 0.00 81 1010.7
20260906020544 27 0 0.0 0.0 0.00 0.00 0.00 79 1010.6
20260906020113 27 0 0.0 0.0 0.00 0.00 0.00 78 1010.6
20260906015543 27 0 0.0 0.0 0.00 0.00 0.00 79 1010.6
20260906015041 27 0 0.0 0.0 0.00 0.00 0.00 81 1010.5
20260906014608 27 0 0.0 0.0 0.00 0.00 0.00 83 1010.5
20260906014043 26 0 0.0 0.0 0.00 0.00 0.00 82 1010.6
20260906013543 27 0 0.0 0.0 0.00 0.00 0.00 81 1010.4
20260906013106 27 0 0.0 0.0 0.00 0.00 0.00 80 1010.3
20260906012544 27 0 0.0 0.0 0.00 0.00 0.00 80 1010.3
20260906012042 27 0 0.0 0.0 0.00 0.00 0.00 80 1010.4
20260906011608 28 0 0.0 0.0 0.00 0.00 0.00 75 1010.3
20260906011044 30 0 0.0 0.0 0.00 0.00 0.00 69 1010.2
20260906010544 29 0 0.0 0.0 0.00 0.00 0.00 70 1010.2
20260906010112 29 0 0.0 0.0 0.00 0.00 0.00 72 1010.4
20260906005542 28 0 0.0 0.0 0.00 0.00 0.00 76 1010.4
20260906005047 28 0 0.0 0.0 0.00 0.00 0.00 78 1010.4
20260906004607 28 0 0.0 0.0 0.00 0.00 0.00 77 1010.6
20260906004044 28 0 0.0 0.0 0.00 0.00 0.00 78 1010.6
20260906003544 29 0 0.0 0.0 0.00 0.00 0.00 76 1010.6
20260906003108 30 0 0.0 0.0 0.00 0.00 0.00 72 1010.6
20260906002542 31 0 0.0 0.0 0.00 0.00 0.00 67 1010.6
20260906002043 31 0 0.0 0.0 0.00 0.00 0.00 65 1010.7
20260906001606 31 0 0.0 0.0 0.00 0.00 0.00 66 1010.6
20260906001045 30 0 0.0 0.0 0.00 0.00 0.00 71 1010.6
20260906000544 31 0 0.0 0.0 0.00 0.00 0.00 70 1010.5
20260906000111 31 0 0.0 1.6 0.00 0.00 0.00 67 1010.4
20260905235544 32 0 0.0 3.2 0.00 0.00 0.00 60 1010.5
20260905235045 32 0 0.0 3.2 0.00 0.00 0.00 60 1010.5
20260905234606 32 0 0.0 3.2 0.00 0.00 0.00 59 1010.4
20260905234044 33 234 0.0 4.8 0.00 0.00 0.00 58 1010.5
20260905233542 33 0 0.0 4.8 0.00 0.00 0.00 58 1010.6
20260905233117 33 272 1.6 4.8 0.00 0.00 0.00 57 1010.6
20260905232543 33 221 1.6 6.4 0.00 0.00 0.00 56 1010.6
20260905232043 33 218 3.2 6.4 0.00 0.00 0.00 56 1010.6
20260905231608 33 223 1.6 4.8 0.00 0.00 0.00 55 1010.6
20260905231046 34 238 1.6 3.2 0.00 0.00 0.00 54 1010.5
20260905230544 34 225 0.0 4.8 0.00 0.00 0.00 53 1010.5
20260905230108 34 257 0.0 6.4 0.00 0.00 0.00 52 1010.5
20260905225544 35 267 1.6 6.4 0.00 0.00 0.00 51 1010.5
20260905225044 35 256 3.2 6.4 0.00 0.00 0.00 51 1010.5
20260905224607 35 235 1.6 8.0 0.00 0.00 0.00 51 1010.4
20260905224044 35 235 0.0 8.0 0.00 0.00 0.00 51 1010.6
20260905223543 35 216 1.6 8.0 0.00 0.00 0.00 50 1010.4
20260905223108 35 218 4.8 8.0 0.00 0.00 0.00 48 1010.5
20260905222544 35 211 3.2 8.0 0.00 0.00 0.00 48 1010.4
20260905222043 35 239 3.2 9.7 0.00 0.00 0.00 48 1010.5
20260905221602 35 286 3.2 9.7 0.00 0.00 0.00 49 1010.4
20260905221043 35 263 3.2 11.3 0.00 0.00 0.00 49 1010.6
20260905220544 36 234 6.4 11.3 0.00 0.00 0.00 47 1010.4
20260905220108 36 237 4.8 11.3 0.00 0.00 0.00 49 1010.6
20260905215544 36 325 3.2 9.7 0.00 0.00 0.00 49 1010.5
20260905215043 36 203 6.4 11.3 0.00 0.00 0.00 48 1010.5
20260905214605 36 250 4.8 11.3 0.00 0.00 0.00 47 1010.6
20260905214043 36 251 4.8 11.3 0.00 0.00 0.00 47 1010.5
20260905213544 36 0 1.6 9.7 0.00 0.00 0.00 45 1010.6
20260905213113 36 279 4.8 9.7 0.00 0.00 0.00 46 1010.6
20260905212544 36 33 1.6 9.7 0.00 0.00 0.00 46 1010.7
20260905212043 36 329 4.8 12.9 0.00 0.00 0.00 46 1010.7
20260905211613 36 265 4.8 12.9 0.00 0.00 0.00 48 1010.8
20260905211045 36 296 1.6 9.7 0.00 0.00 0.00 48 1010.8
20260905210544 36 286 1.6 14.5 0.00 0.00 0.00 46 1010.8
20260905210114 36 246 6.4 14.5 0.00 0.00 0.00 48 1010.9
20260905205543 36 252 4.8 11.3 0.00 0.00 0.00 48 1010.9
20260905205044 36 221 4.8 9.7 0.00 0.00 0.00 47 1010.9
20260905204606 36 302 3.2 9.7 0.00 0.00 0.00 48 1011.0
20260905204044 36 238 3.2 12.9 0.00 0.00 0.00 48 1011.0
20260905203544 36 0 4.8 12.9 0.00 0.00 0.00 49 1011.1
20260905203107 36 232 3.2 16.1 0.00 0.00 0.00 51 1011.1
20260905202545 35 294 8.0 16.1 0.00 0.00 0.00 50 1011.3
20260905202042 35 0 1.6 6.4 0.00 0.00 0.00 48 1011.5
20260905201600 35 279 1.6 12.9 0.00 0.00 0.00 50 1011.5
20260905201043 35 340 3.2 12.9 0.00 0.00 0.00 50 1011.6
20260905200547 36 252 4.8 12.9 0.00 0.00 0.00 47 1011.7
20260905195543 36 317 1.6 6.4 0.00 0.00 0.00 51 1011.8
20260905195044 36 186 1.6 6.4 0.00 0.00 0.00 47 1011.7
20260905194607 35 257 1.6 6.4 0.00 0.00 0.00 48 1011.7
20260905194044 35 0 0.0 6.4 0.00 0.00 0.00 51 1011.8
20260905193543 35 282 1.6 6.4 0.00 0.00 0.00 50 1011.9
20260905193100 35 254 3.2 12.9 0.00 0.00 0.00 49 1012.0
20260905192543 35 0 4.8 12.9 0.00 0.00 0.00 49 1012.0
20260905192042 35 279 3.2 11.3 0.00 0.00 0.00 54 1012.1
20260905191559 35 269 4.8 9.7 0.00 0.00 0.00 50 1012.1
20260905191043 35 277 1.6 11.3 0.00 0.00 0.00 51 1012.2
20260905190546 35 194 3.2 11.3 0.00 0.00 0.00 52 1012.2
20260905190104 35 296 1.6 8.0 0.00 0.00 0.00 52 1012.2
20260905185544 35 17 3.2 6.4 0.00 0.00 0.00 51 1012.3
20260905185042 35 19 1.6 3.2 0.00 0.00 0.00 51 1012.3
20260905184611 35 0 0.0 3.2 0.00 0.00 0.00 50 1012.4
20260905184041 35 0 0.0 3.2 0.00 0.00 0.00 50 1012.5
20260905183544 35 279 0.0 6.4 0.00 0.00 0.00 50 1012.5
20260905183119 34 312 3.2 14.5 0.00 0.00 0.00 58 1012.7
20260905182543 34 314 4.8 14.5 0.00 0.00 0.00 52 1012.8
20260905182044 35 301 8.0 14.5 0.00 0.00 0.00 52 1012.9
20260905181606 34 321 3.2 9.7 0.00 0.00 0.00 52 1013.0
20260905181043 34 295 4.8 14.5 0.00 0.00 0.00 56 1013.0
20260905180543 35 190 6.4 14.5 0.00 0.00 0.00 51 1013.3
20260905180108 35 292 3.2 8.0 0.00 0.00 0.00 54 1013.3
20260905175547 35 189 1.6 6.4 0.00 0.00 0.00 54 1013.3
20260905175046 35 0 0.0 6.4 0.00 0.00 0.00 51 1013.4
20260905174602 34 0 1.6 6.4 0.00 0.00 0.00 54 1013.4
20260905174045 34 0 1.6 12.9 0.00 0.00 0.00 53 1013.4
20260905173544 35 71 4.8 12.9 0.00 0.00 0.00 50 1013.4
20260905173059 35 94 3.2 8.0 0.00 0.00 0.00 51 1013.5
20260905172544 35 64 3.2 6.4 0.00 0.00 0.00 51 1013.5
20260905172043 35 313 1.6 8.0 0.00 0.00 0.00 50 1013.6
20260905171559 34 0 3.2 9.7 0.00 0.00 0.00 49 1013.6
20260905171044 35 312 4.8 9.7 0.00 0.00 0.00 53 1013.6
20260905170544 34 324 1.6 12.9 0.00 0.00 0.00 53 1013.7
20260905170104 34 49 4.8 12.9 0.00 0.00 0.00 55 1013.8
20260905165542 34 269 3.2 9.7 0.00 0.00 0.00 55 1013.7
20260905165044 34 218 1.6 8.0 0.00 0.00 0.00 54 1013.9
20260905164609 34 342 4.8 8.0 0.00 0.00 0.00 54 1013.9
20260905164043 33 63 3.2 11.3 0.00 0.00 0.00 55 1014.0
20260905163548 33 317 4.8 11.3 0.00 0.00 0.00 54 1014.0
20260905163107 33 283 3.2 11.3 0.00 0.00 0.00 55 1014.0
20260905162545 33 21 1.6 6.4 0.00 0.00 0.00 55 1014.1
20260905162044 33 349 1.6 6.4 0.00 0.00 0.00 57 1014.1
20260905161600 33 29 1.6 6.4 0.00 0.00 0.00 56 1014.2
20260905161044 33 22 3.2 11.3 0.00 0.00 0.00 57 1014.1
20260905160544 33 310 4.8 11.3 0.00 0.00 0.00 62 1014.2
20260905160105 33 34 1.6 11.3 0.00 0.00 0.00 59 1014.2
20260905155541 33 296 1.6 11.3 0.00 0.00 0.00 61 1014.1
20260905155043 33 306 4.8 14.5 0.00 0.00 0.00 61 1014.2
20260905154606 33 298 3.2 14.5 0.00 0.00 0.00 61 1014.2
20260905154042 33 360 8.0 14.5 0.00 0.00 0.00 61 1014.2
20260905153544 32 305 3.2 9.7 0.00 0.00 0.00 60 1014.3
20260905153110 32 301 3.2 11.3 0.00 0.00 0.00 63 1014.4
20260905152543 32 319 4.8 11.3 0.00 0.00 0.00 62 1014.5
20260905152044 32 329 6.4 11.3 0.00 0.00 0.00 61 1014.4
20260905151611 32 313 3.2 6.4 0.00 0.00 0.00 62 1014.4
20260905151044 32 9 1.6 9.7 0.00 0.00 0.00 67 1014.5
20260905150543 31 281 3.2 9.7 0.00 0.00 0.00 64 1014.5
20260905150100 31 307 4.8 9.7 0.00 0.00 0.00 66 1014.5
20260905145544 31 269 4.8 8.0 0.00 0.00 0.00 65 1014.5
20260905145042 31 299 4.8 8.0 0.00 0.00 0.00 68 1014.5
20260905144558 31 297 4.8 8.0 0.00 0.00 0.00 65 1014.5
20260905144043 31 345 6.4 8.0 0.00 0.00 0.00 66 1014.5
20260905143544 31 314 4.8 8.0 0.00 0.00 0.00 66 1014.5
20260905143102 31 291 1.6 8.0 0.00 0.00 0.00 70 1014.5
20260905142542 30 337 3.2 6.4 0.00 0.00 0.00 68 1014.6
20260905142044 30 325 0.0 4.8 0.00 0.00 0.00 72 1014.5
20260905141607 30 320 1.6 6.4 0.00 0.00 0.00 73 1014.5
20260905141047 30 329 1.6 6.4 0.00 0.00 0.00 73 1014.5
20260905140542 30 293 1.6 6.4 0.00 0.00 0.00 74 1014.5
20260905140109 29 306 3.2 6.4 0.00 0.00 0.00 73 1014.5
20260905135542 29 289 3.2 6.4 0.00 0.00 0.00 76 1014.6
20260905135042 28 287 0.0 4.8 0.00 0.00 0.00 78 1014.5
20260905134604 28 288 0.0 4.8 0.00 0.00 0.00 78 1014.6
20260905134043 28 0 0.0 0.0 0.00 0.00 0.00 82 1014.6
20260905133543 27 0 0.0 0.0 0.00 0.00 0.00 84 1014.5
20260905133100 27 0 0.0 0.0 0.00 0.00 0.00 84 1014.6
20260905132542 26 0 0.0 0.0 0.00 0.00 0.00 86 1014.6
20260905132045 26 0 0.0 0.0 0.00 0.00 0.00 85 1014.5
20260905131617 26 0 0.0 0.0 0.00 0.00 0.00 86 1014.5
20260905131042 26 0 0.0 3.2 0.00 0.00 0.00 87 1014.5
20260905130545 25 0 0.0 3.2 0.00 0.00 0.00 88 1014.4
20260905130058 25 0 0.0 3.2 0.00 0.00 0.00 89 1014.4
20260905125542 25 0 0.0 3.2 0.00 0.00 0.00 90 1014.5
20260905125042 24 0 0.0 0.0 0.00 0.00 0.00 91 1014.5
20260905124608 23 0 0.0 0.0 0.00 0.00 0.00 91 1014.5
20260905124042 23 0 0.0 0.0 0.00 0.00 0.00 91 1014.4
20260905123539 23 0 0.0 0.0 0.00 0.00 0.00 91 1014.5
20260905123110 23 0 0.0 0.0 0.00 0.00 0.00 91 1014.4
20260905122540 22 0 0.0 1.6 0.00 0.00 0.00 92 1014.4